Location: *
(37.9500°N, 27.3666°E)
Time: 04:11:51
(UTC+00:00)

Cosmos 371 Rocket - Pass Details

Date: 24 October 2021
Orbit: 684 x 699 km, 74.0° (Epoch: 03 December)

Event Time Altitude Azimuth Distance (km) Brightness Sun altitude
Rises 16:24:23 0° 212° (SSW) 3,052 7.2 -13.1°
Reaches altitude 10° 16:26:46 10° 218° (SW) 2,142 6.4 -13.6°
Maximum altitude 16:31:25 46° 292° (WNW) 932 4.4 -14.5°
Drops below altitude 10° 16:36:06 10° 6° (N) 2,164 5.7 -15.5°
Sets 16:38:31 0° 12° (NNE) 3,087 6.5 -15.9°
